Tracking 17694 objects as of 30-May-2016
HD Live streaming from Space Station
objects crossing your sky now

BONUM 1

Track BONUM 1 now!
BONUM 1 is classified as:


NORAD ID: 25546
Int'l Code: 1998-068A
Perigee: 36,131.1 km
Apogee: 36,153.4 km
Inclination: 3.5 °
Period: 1,453.9 minutes
Semi major axis: 42513 km
RCS: 0.003 m2 (small)
Launch date: November 22, 1998
Source: Commonwealth of Independent States (former USSR) (CIS)
Launch site: AIR FORCE EASTERN TEST RANGE (AFETR)

Television broadcasting; 8 Ku-band, Siberia or Europe, selected.
Your satellite tracking list
Your tracking list is empty





NASA's NSSDC Master Catalog

Two Line Element Set (TLE):
1 25546U 98068A   16150.03136063 -.00000218  00000-0  00000+0 0  9999
2 25546   3.4850  69.2400 0002616 280.5113  79.1559  0.99041401 64172
Source of the keplerian elements: AFSPC

N2YO: 516